Terminal Aerodrome Forecast
Issued by NWS

Home | Current Version | Previous Version | Text Only | Print | Product List | Glossary On
Versions: 1 2 3 4 5 6 7 8 9 10 11 12 13 14 15 16 17 18 19 20 21 22 23 24 25 26 27 28 29 30 31 32 33 34 35 36 37 38 39 40 41 42 43 44 45 46 47
000
FTUS45 KGJT 282335
TAFASE
TAF
KASE 282335Z 0100/0124 01004KT P6SM VCSH SCT030 OVC050
      TEMPO 0100/0103 3SM -SN SCT015 BKN030 OVC045
     FM010300 15003KT 1 1/2SM -SN BR BKN015 OVC030
     FM011400 17004KT 4SM -SN BR SCT015 OVC025=

USA.gov is the U.S. government's official web portal to all federal, state and local government web resources and services.